Regional Weather Roundup
Issued by NWS Wakefield, VA

Home | Current Version | Previous Version | Text Only | Print | Product List | Glossary Off
Versions: 1 2 3 4 5 6 7 8 9 10 11 12 13 14 15 16 17 18 19 20 21 22 23 24 25 26 27 28 29 30 31 32 33 34 35 36 37 38 39 40 41 42 43 44 45 46 47 48 49 50

000
ASUS41 KAKQ 200210
RWRAKQ

REGIONAL WEATHER ROUNDUP
NATIONAL WEATHER SERVICE WAKEFIELD VA
900 PM EST FRI DEC 19 2014

Note: "fair" indicates few or no clouds below 12,000 feet with no
significant weather and/or obstructions to visibility. * = Denotes
station may not report precipitation (e.g., rain,snow,etc.),
thunder or fog.

VAZ042-051-052>054-056-200300-
NORTHERN VIRGINIA

CITY           SKY/WX    TMP DP  RH WIND       PRES   REMARKS
WASH NATIONAL  CLEAR     37  22  54 N13       30.25R
DULLES         CLEAR     30  21  69 NW7       30.24R
FORT BELVOIR   CLEAR     26  22  85 SW1       30.26R
QUANTICO       CLEAR     32  23  69 N7        30.27R
FREDERICKSBRG* CLEAR     35  25  66 N5        30.25R
STAFFORD*      CLEAR     32  21  65 N8        30.29R
WARRENTON      CLEAR     27  26  94 CALM      30.24R
CULPEPER*      CLEAR     30  25  80 CALM      30.25R
MANASSAS*      CLEAR     27  25  93 NW3       30.25R
LEESBURG*      CLEAR     30  27  86 NW3       30.25R
WINCHESTER     CLEAR     32  19  59 W8        30.24R
FRONT ROYAL*   CLEAR     27  23  86 S5        30.24R
LURAY*         CLEAR     28  27  93 CALM      30.24R
$$

VAZ048-049-060>072-079>083-200300-
CENTRAL AND SOUTH CENTRAL VIRGINIA

CITY           SKY/WX    TMP DP  RH WIND       PRES   REMARKS
RICHMOND       MOCLDY    34  24  67 N7        30.23R
CHESTERFIELD*  PTCLDY    34  16  47 CALM      30.23R
PETERSBURG*    PTCLDY    33  27  78 NE5       30.22S
HANOVER        CLEAR     33  23  66 VRB5      30.25R
TAPPAHANNOCK*  CLEAR     30  22  73 CALM      30.25R
QUINTON*       CLEAR     33  24  70 CALM      30.23R
CHARLOTTSVILLE CLEAR     33  22  63 N5        30.21R
GORDONSVILLE*  CLEAR     27  22  82 CALM      30.22S
ORANGE*        CLEAR     28  25  86 CALM      30.25R
LOUISA*        CLEAR     30  23  74 NE3       30.21S
BUMPASS*       CLEAR     33  23  67 CALM      30.23S
FARMVILLE*     PTCLDY    34  27  76 N7        30.20R
CREWE*         MOCLDY    29  26  88 CALM      30.20R
FORT PICKETT*  MOCLDY    34  26  73 NE3       30.20R
CHASE CITY*    MOCLDY    33  31  93 CALM      30.20R
CLARKSVILLE*   MOCLDY    32  30  93 CALM      30.19R
SOUTH HILL*    MOCLDY    32  28  86 CALM      30.26R
LAWRENCEVILLE* MOCLDY    33  31  90 CALM      30.20R
EMPORIA*       MOCLDY    30  28  93 CALM      30.23S
$$

VAZ088>098-200300-
SOUTHEAST VIRGINIA

CITY           SKY/WX    TMP DP  RH WIND       PRES   REMARKS
NORFOLK        PTCLDY    39  28  64 N9        30.21R
VIRGINIA BEACH MOCLDY    36  28  73 NE5       30.21R
NORFOLK NAVAL  MOCLDY    41  27  57 N12       30.23S
WEST POINT*    PTCLDY    29  24  82 CALM      30.25S
SALUDA*        FAIR      35  26  68 N5        30.22S
NEWPORT NEWS   CLEAR     37  26  64 N3        30.22S
LANGLEY AFB    CLEAR     36  26  68 N8        30.23S
FORT EUSTIS    CLEAR     35  24  65 NE2       30.21S
WILLIAMSBURG*  CLEAR     34  28  80 CALM      30.23S
HR EXEC AP*    PTCLDY    27  23  86 CALM      30.24R
FRANKLIN*      MOCLDY    28  27  93 CALM      30.21F
WAKEFIELD      PTCLDY    32  25  75 NE3       30.22S
$$

VAZ020-022-025-037-045-200300-
WEST CENTRAL AND SOUTHWEST VIRGINIA

CITY           SKY/WX    TMP DP  RH WIND       PRES   REMARKS
STAUNTON*      CLEAR     29  22  73 N7        30.23S
WAYNESBORO*    CLEAR     28  21  77 W3        30.20S
HOT SPRINGS VA CLEAR     21  21  98 CALM      30.07S
LYNCHBURG      MOCLDY    34  25  69 N6        30.20R
DANVILLE       PTCLDY    33  26  75 CALM      30.20R
SOUTH BOSTON*  MOCLDY    32  27  81 CALM      30.20R
MARTINSVILLE   MOCLDY    32  27  81 CALM      30.21R
ROANOKE        MOCLDY    35  22  58 N8        30.23R
BLACKSBURG     MOCLDY    31  22  68 W5        30.20S
DUBLIN*        MOCLDY    32  26  78 NE3       30.18S
MARION*        MOCLDY    33  24  70 CALM      30.19R
HILLSVILLE*    MOCLDY    34  23  64 NW6       30.14S
RICHLANDS*     MOCLDY    30  23  75 NE6       30.17S
WISE*          MOCLDY    32  27  80 N3        30.17F
ABINGDON*      MOCLDY    33  27  77 CALM      30.17S
$$

MDZ021>025-VAZ099-100-200300-
SOUTHERN MARYLAND AND THE DELMARVA PENINSULA

CITY           SKY/WX    TMP DP  RH WIND       PRES   REMARKS
PATUXENT RIVER CLEAR     33  22  63 W8        30.23R
BAY BRIDGE APT   N/A     36  25  64 NW9       30.23R
LEONARDTOWN    CLEAR     32  23  69 W5        30.25R
DOVER          CLEAR     32  23  70 NW7       30.17R
GEORGETOWN     CLEAR     32  23  69 NW3       30.20R
EASTON         CLEAR     34  27  75 NW9       30.25
CAMBRIDGE      CLEAR     37  27  65 NW9       30.21R
SALISBURY      CLEAR     32  23  69 W3        30.20R
OCEAN CITY     CLEAR     30  24  78 W3        30.20R
WALLOPS ISLAND CLEAR     31  24  75 NW5       30.22R
ACCOMACK*      CLEAR     34  25  69 NW5       30.22S
$$

NCZ012>017-030>032-200300-
NORTH CENTRAL AND EASTERN NORTH CAROLINA

CITY           SKY/WX    TMP DP  RH WIND       PRES   REMARKS
ROANOKE RAPIDS MOCLDY    32  30  93 CALM      30.20R
RALEIGH        CLOUDY    41  28  60 E3        30.20R
ELIZABETH CITY MOCLDY    41  30  65 NE7       30.22R
AHOSKIE*       CLOUDY    31  28  88 CALM      30.22R
EDENTON*         N/A     34  30  85 CALM      30.21S
CURRITUCK*     MOCLDY    35  30  83 CALM      30.22S
KILL DEVIL HLS MOCLDY    40  31  71 N3        30.20R
MANTEO         MOCLDY    40  32  72 N3        30.21S
CAPE HATTERAS  MOCLDY    41  34  76 NE5       30.20S
TARBORO*       MOCLDY    34  32  93 CALM      30.22R
GOLDSBORO      MOCLDY    40  38  92 CALM      30.18R
WASHINGTON     MOCLDY    35  31  85 CALM      30.21R
GREENVILLE     MOCLDY    36  32  87 CALM      30.22R
NEW BERN       PTCLDY    39  32  76 CALM      30.22R
WILMINGTON     MOCLDY    42  37  82 NE5       30.19R
$$

VAZ048-200300-
ELSEWHERE

CITY           SKY/WX    TMP DP  RH WIND       PRES   REMARKS
HARRISBURG PA  MOCLDY    32  22  66 NW10      30.20R WCI  24
BALTIMORE      CLEAR     31  22  69 NW6       30.22R
ANNAPOLIS      CLEAR     36  23  59 NW8       30.23R
ANDREWS AFB    CLEAR     34  22  63 NW10      30.23R
PHILADELPHIA   PTCLDY    33  21  61 N8        30.21R
HENDERSON NC   CLOUDY    35  29  79 CALM      30.19S
GREENSBORO     CLOUDY    43  25  49 CALM      30.18R
ROCKY MOUNT    MOCLDY    36  31  82 CALM      30.20S
$$

VAZ100-200300-
MARINE

STATION/POSITION TIME  TEMP    WIND        PRES    WAVE   SWELL
                       AIR SEA DIR/SP/G            HT/PER HT/PER
                 (UTC) (F)     (DEG/KT/KT) (MB)    (FT/S) (FT/S)
CAPE MAY NJ      0200   39 42  330/ 12/ 17 1021.4F
LEWES DE         0200   35 42  290/  9/ 11 1022.2R
15NM E FENWICK I 0200   40 47              1021.7R   2/ 3
OCEAN-CITY-INLET 0200   34 45  280/  6/  8 1022.3R
WACHAPREAGUE VA  0200   33 43   CALM  /  1 1023.1S
THOMAS POINT MD  0200   36 41  310/ 12/ 15 1024.7R
GOOSES REEF MD   0200   37     VRB 14/ 16  1022.5R
COVE POINT MD    0200   36     330/ 12/ 16 1023.3R
SOLOMONS ISLAND  0200      43                N/A
BISHOPS HEAD MD  0200   37 37  310/  9/ 12 1022.8R
POTOMAC MD       0200   39     350/ 12/ 16 1022.6R
CAMBRIDGE MD     0200   38 40  310/  9/ 15 1023.0R
LEWISETTA VA     0200   36 42  300/  6/  6 1023.5R
RAPPAHANNOCK LGT 0200          330/ 16/ 19 1023.6R
STINGRAY PT      0200   38     340/ 10/ 12 1023.8S
YORK RVR RNG VA  0200   39     360/ 12/ 13 1022.6F
YORKTOWN VA      0200   38 45  350/  5/  6 1023.2S
JAMESTOWN VA     0200   36      40/  4/  6   N/A
DOMINION TERM VA 0200   38      50/  2/  4 1023.1F
KIPTOPEKE VA     0200      49   10/  7/ 10   N/A
CHES BAY BRIDGE  0200   40 46  340/ 15/ 17 1022.5F
CAPE HENRY VA    0200   40     360/ 15/ 18 1021.6F
CHESAPEAKE LGHT  0100   40     360/ 15/ 17 1023.4R
WILLOUBY STN VA  0200   39     360/ 11/ 13 1023.4F
S CRANEY ISL VA  0200           20/ 11/ 13 1022.9F
CAPE HENRY BUOY  0200      48                N/A     3/ 5
1ST LANDING BUOY 0200   41     350/ 14/ 17 1022.7R
CAPE CHARLES BUO 0200      48                N/A     2/ 4   2/12
64NM E OF VA BCH 0200   43 54  340/ 16/ 21 1022.0R   4/ 5   2/12
DUCK PIER NC     0200   42 47  360/  9/ 12 1021.9S
44100 DUCK FRF   0200      51                N/A     4/ 6
44056 DUCK FRF   0200      47                N/A     3/ 6
OREGON INLET NC  0200   40 50  330/  5/  6 1022.8S
HATTERAS NC      0200   44 53   30/  7/ 10 1022.8S
DIAMOND SHLS NC  0200   46                 1022.5R   3/ 7
CAPE LOOKOUT NC  0100   47      20/  8/  9 1021.7F
$$


USA.gov is the U.S. government's official web portal to all federal, state and local government web resources and services.